FALCON 9 R/B (52934 NORAD) Tracking and Keplerian Element Data

This shows tracking and keplerian element data for the satellite.

Feedback or suggestion? Click here.




ElementValue
Catalog52934
NameFALCON 9 R/B
Epoch Orbit25
Epoch Day192.44297595
Epoch Year2022
RAAN62.3446
Inclination16.5809
Eccentricity0.7251831
Argument of Perigee187.3826
Mean Anonmoly148.4967
Mean Motion2.28764501
Decay Rate9.07E-06
L11 52934U 22071B 22192.44297595 .00000907 00000+0 75056-3 0 9997
L22 52934 16.5809 62.3446 7251831 187.3826 148.4967 2.28764501 252

Live tracking and technical data element details for FALCON 9 R/B (NORAD 52934). FALCON 9 R/B can be tracked NOW for your location showing map with azimuth and elevation plus other details from your city location.

Track the satellite on the map from your city or location and see movement details for azimuth, elevation, latitude, longitude, range, height, and movement on the map or in text.







IsCatalogInMostPopularTable: catalog: 52934, numindb: 7
Update: records affected: 1



GetName: 52934 FALCON 9 R/B

Hit Count: updated at: Thu, 06 Oct 2022 04:49:03 GMT